DW8219 Weather Reports


Display with metric or nautical units.
time (UTC)temp
F
wind
direction
speed
MPH
gust
MPH
rain 1hr
in
rain 24hr
in
rain mn
in
humidity
%
barometer
mb
20260902232405 67 97 0.0 0.0 0.00 0.26 0.18 92 1017.2
20260902231905 67 107 0.0 0.0 0.00 0.28 0.18 92 1017.1
20260902231404 67 107 0.0 0.0 0.00 0.35 0.18 92 1017.1
20260902230904 67 107 0.0 0.0 0.00 0.36 0.18 92 1017.2
20260902230404 67 107 0.0 0.0 0.00 0.36 0.18 92 1017.3
20260902225905 67 107 0.0 0.0 0.00 0.37 0.18 93 1017.1
20260902224905 67 104 0.0 0.0 0.00 0.38 0.18 93 1017.4
20260902224405 67 105 0.0 0.0 0.00 0.38 0.18 93 1017.5
20260902223905 67 105 0.0 0.0 0.00 0.38 0.18 93 1017.9
20260902223406 67 105 0.0 0.0 0.00 0.41 0.18 93 1017.9
20260902222404 67 105 0.0 0.0 0.00 0.43 0.18 93 1017.9
20260902221405 67 101 0.0 0.0 0.00 0.43 0.18 93 1017.9
20260902220904 67 101 0.0 0.0 0.00 0.43 0.18 93 1017.9
20260902220404 67 108 0.0 0.0 0.00 0.43 0.18 93 1018.1
20260902215904 67 128 0.0 0.0 0.00 0.43 0.18 93 1018.2
20260902215405 67 128 0.0 0.0 0.00 0.43 0.18 93 1018.3
20260902214905 67 129 0.0 0.0 0.00 0.43 0.18 93 1018.3
20260902214405 67 130 0.0 0.0 0.00 0.43 0.18 93 1018.3
20260902213906 67 112 0.0 0.0 0.00 0.44 0.18 93 1018.3
20260902213405 67 101 0.0 0.0 0.00 0.46 0.18 93 1018.3
20260902212905 67 105 0.0 0.0 0.00 0.46 0.18 93 1018.3
20260902212403 67 111 0.0 0.0 0.00 0.46 0.18 93 1018.2
20260902211903 67 107 0.0 0.0 0.00 0.46 0.18 93 1018.0
20260902211404 67 93 0.0 0.0 0.00 0.46 0.18 93 1018.0
20260902210903 67 102 0.0 0.0 0.00 0.46 0.18 93 1018.0
20260902210403 67 107 0.0 0.0 0.00 0.46 0.18 93 1018.1
20260902205904 67 117 0.0 0.0 0.00 0.46 0.18 93 1018.0
20260902205405 67 117 0.0 0.0 0.00 0.46 0.18 93 1018.0
20260902204904 67 138 0.0 0.0 0.00 0.46 0.18 93 1018.0
20260902203904 67 128 0.0 0.0 0.01 0.46 0.18 93 1017.9
20260902203403 67 101 0.0 0.0 0.01 0.46 0.18 93 1017.9
20260902202904 67 101 0.0 0.0 0.01 0.46 0.18 93 1017.9
20260902202405 67 104 0.0 0.0 0.02 0.46 0.18 93 1017.9
20260902201904 67 96 0.0 0.0 0.08 0.46 0.18 93 1018.0
20260902201405 67 96 0.0 2.0 0.09 0.46 0.18 93 1017.9
20260902200904 67 99 1.0 3.0 0.10 0.46 0.18 93 1018.0
20260902200403 67 102 0.0 2.0 0.12 0.46 0.18 94 1018.1
20260902195404 67 102 1.0 3.0 0.13 0.46 0.18 93 1018.3
20260902194904 67 104 0.0 2.0 0.13 0.46 0.18 93 1018.3
20260902194404 67 103 0.0 3.0 0.13 0.46 0.18 93 1018.3
20260902193904 67 100 0.0 2.0 0.13 0.45 0.17 93 1018.2
20260902193404 67 98 0.0 2.0 0.16 0.45 0.17 93 1018.4
20260902192904 67 7 0.0 2.0 0.16 0.45 0.17 93 1018.5
20260902191404 67 351 0.0 0.0 0.08 0.37 0.09 92 1018.7
20260902190905 67 351 0.0 1.0 0.07 0.36 0.08 91 1019.0
20260902190404 67 330 0.0 2.0 0.05 0.34 0.06 91 1019.0
20260902185904 68 338 0.0 0.0 0.05 0.34 0.06 90 1018.9
20260902185404 67 319 0.0 0.0 0.04 0.33 0.05 90 1018.7
20260902184904 67 143 0.0 0.0 0.04 0.33 0.05 88 1018.7
20260902184404 68 144 0.0 0.0 0.04 0.33 0.05 87 1018.6
20260902183905 68 144 0.0 0.0 0.03 0.32 0.04 85 1018.6
20260902183404 69 144 0.0 0.0 0.00 0.29 0.01 85 1018.6
20260902182904 69 144 0.0 0.0 0.00 0.29 0.01 84 1018.5
20260902182404 69 144 0.0 0.0 0.00 0.29 0.01 84 1018.5
20260902181904 69 144 0.0 0.0 0.00 0.29 0.01 83 1018.5
20260902181404 70 144 0.0 0.0 0.00 0.29 0.01 82 1018.5
20260902180904 70 144 0.0 0.0 0.00 0.29 0.01 81 1018.5
20260902180405 70 144 0.0 0.0 0.00 0.29 0.01 81 1018.6
20260902175904 69 144 0.0 0.0 0.00 0.29 0.01 82 1018.6
20260902174904 70 144 0.0 0.0 0.00 0.29 0.01 82 1018.6
20260902173905 70 138 0.0 0.0 0.00 0.29 0.01 83 1018.6
20260902173404 69 133 0.0 0.0 0.00 0.29 0.01 82 1018.8
20260902171905 70 132 0.0 1.0 0.00 0.30 0.01 81 1018.7
20260902171405 70 127 0.0 3.0 0.00 0.31 0.01 81 1018.6
20260902170905 70 140 1.0 5.0 0.00 0.32 0.01 81 1018.7
20260902170405 70 143 0.0 0.0 0.00 0.32 0.01 83 1018.7
20260902164905 69 132 0.0 0.0 0.00 0.32 0.01 85 1019.0
20260902163904 69 60 0.0 0.0 0.00 0.32 0.01 87 1019.2
20260902163405 69 61 0.0 0.0 0.00 0.32 0.01 88 1019.2
20260902162904 69 84 0.0 0.0 0.00 0.32 0.01 88 1019.2
20260902162404 68 84 0.0 0.0 0.00 0.32 0.01 88 1019.1
20260902161906 68 84 0.0 0.0 0.00 0.32 0.01 89 1019.1
20260902161405 68 86 0.0 0.0 0.00 0.32 0.01 89 1019.1
20260902160904 68 54 0.0 0.0 0.00 0.32 0.01 88 1019.0
20260902160404 67 96 0.0 0.0 0.00 0.32 0.01 89 1019.1
20260902155905 67 98 0.0 0.0 0.00 0.32 0.01 90 1019.1
20260902155405 67 86 0.0 0.0 0.00 0.32 0.01 90 1019.1
20260902154905 67 78 0.0 0.0 0.00 0.33 0.01 90 1019.2
20260902154406 67 78 0.0 0.0 0.00 0.33 0.01 90 1019.3
20260902153906 67 77 0.0 0.0 0.00 0.33 0.01 90 1019.4
20260902153405 67 77 0.0 0.0 0.00 0.33 0.01 90 1019.4
20260902152905 67 78 0.0 0.0 0.00 0.34 0.01 90 1019.3
20260902152404 67 58 0.0 1.0 0.00 0.35 0.01 91 1019.2
20260902151904 66 60 0.0 2.0 0.00 0.36 0.01 91 1019.1
20260902151404 66 104 0.0 0.0 0.00 0.37 0.01 92 1019.1
20260902150904 66 67 0.0 0.0 0.00 0.39 0.01 92 1019.2
20260902150404 66 111 0.0 0.0 0.00 0.40 0.01 92 1019.4
20260902145904 66 103 0.0 0.0 0.00 0.40 0.01 93 1019.4
20260902145405 66 44 0.0 0.0 0.00 0.41 0.01 93 1019.3
20260902143404 66 21 0.0 0.0 0.00 0.42 0.01 94 1019.3
20260902142904 65 98 0.0 0.0 0.00 0.42 0.01 94 1019.3
20260902141903 65 74 0.0 0.0 0.00 0.42 0.01 94 1019.4
20260902141404 64 82 0.0 0.0 0.00 0.42 0.01 94 1019.4
20260902140905 65 5 0.0 0.0 0.00 0.42 0.01 94 1019.4
20260902140404 64 6 0.0 0.0 0.00 0.42 0.01 94 1019.4
20260902135904 64 6 0.0 0.0 0.00 0.42 0.01 95 1019.4
20260902135404 64 40 0.0 0.0 0.00 0.42 0.01 95 1019.4
20260902134904 64 41 0.0 0.0 0.00 0.42 0.01 95 1019.3
20260902134405 64 48 0.0 0.0 0.00 0.42 0.01 95 1019.3
20260902133903 64 48 0.0 0.0 0.00 0.42 0.01 95 1019.3
20260902133404 64 26 0.0 0.0 0.00 0.42 0.01 95 1019.2
20260902132904 64 26 0.0 0.0 0.00 0.42 0.01 95 1019.0
20260902131904 64 24 0.0 0.0 0.00 0.42 0.01 95 1018.8
20260902131404 64 98 0.0 0.0 0.00 0.42 0.01 95 1018.8
20260902125905 64 114 0.0 0.0 0.00 0.42 0.01 95 1019.0
20260902125404 64 114 0.0 0.0 0.00 0.42 0.01 95 1018.9
20260902124904 64 93 0.0 0.0 0.00 0.42 0.01 95 1018.9
20260902124405 64 42 0.0 0.0 0.00 0.42 0.01 95 1018.8
20260902123904 64 82 0.0 0.0 0.00 0.42 0.01 95 1018.8
20260902123406 64 66 0.0 0.0 0.00 0.42 0.01 95 1018.7
20260902122904 64 111 0.0 0.0 0.00 0.42 0.01 95 1018.6
20260902122404 64 103 0.0 0.0 0.00 0.42 0.01 95 1018.5
20260902121904 64 92 0.0 0.0 0.00 0.42 0.01 95 1018.4
20260902121404 64 86 0.0 0.0 0.00 0.42 0.01 95 1018.5
20260902120904 64 92 0.0 0.0 0.00 0.42 0.01 95 1018.5
20260902120404 64 85 0.0 0.0 0.00 0.42 0.01 95 1018.5
20260902115904 63 83 0.0 0.0 0.00 0.42 0.01 95 1018.5
20260902115405 63 7 0.0 0.0 0.00 0.42 0.01 95 1018.5
20260902114905 63 37 0.0 0.0 0.00 0.42 0.01 95 1018.5
20260902113905 64 93 0.0 0.0 0.00 0.43 0.01 95 1018.6
20260902113405 64 101 0.0 0.0 0.00 0.43 0.01 95 1018.6
20260902112904 64 63 0.0 0.0 0.00 0.44 0.01 95 1018.6
20260902112404 64 96 0.0 0.0 0.00 0.44 0.01 95 1018.5
20260902111906 63 105 0.0 0.0 0.00 0.44 0.01 95 1018.5
20260902111404 64 38 0.0 0.0 0.00 0.44 0.01 95 1018.5
20260902110405 64 40 0.0 0.0 0.00 0.44 0.01 95 1018.4
20260902105905 64 20 0.0 0.0 0.00 0.44 0.01 95 1018.4
20260902105404 64 21 0.0 0.0 0.00 0.44 0.01 95 1018.5
20260902104906 64 63 0.0 0.0 0.00 0.44 0.01 95 1018.5
20260902104405 64 36 0.0 0.0 0.00 0.44 0.01 95 1018.5
20260902103904 64 88 0.0 0.0 0.00 0.44 0.01 95 1018.4
20260902103406 64 93 0.0 0.0 0.00 0.44 0.01 95 1018.4
20260902102904 64 31 0.0 0.0 0.00 0.44 0.01 95 1018.3
20260902101905 64 59 0.0 0.0 0.00 0.44 0.01 95 1018.2
20260902101405 64 14 0.0 0.0 0.00 0.44 0.01 95 1018.2
20260902100405 64 56 0.0 0.0 0.00 0.44 0.01 95 1017.9
20260902095906 64 54 0.0 0.0 0.00 0.44 0.01 95 1017.9
20260902095404 64 68 0.0 0.0 0.00 0.44 0.01 95 1018.0
20260902094906 64 98 0.0 0.0 0.00 0.44 0.01 95 1018.0
20260902093905 64 24 0.0 0.0 0.00 0.44 0.01 95 1017.8
20260902093405 64 51 0.0 0.0 0.00 0.44 0.01 95 1017.8
20260902092904 64 53 0.0 0.0 0.00 0.44 0.01 95 1017.8
20260902091904 64 7 0.0 0.0 0.01 0.44 0.01 95 1017.8
20260902091404 64 42 0.0 0.0 0.01 0.44 0.01 95 1017.8
20260902090904 64 94 0.0 0.0 0.01 0.44 0.01 95 1017.9
20260902085904 64 10 0.0 0.0 0.01 0.44 0.01 95 1017.7
20260902085404 64 42 0.0 0.0 0.01 0.44 0.01 95 1017.7
20260902084903 64 37 0.0 0.0 0.01 0.44 0.01 95 1017.7
20260902084406 64 72 0.0 0.0 0.01 0.44 0.01 95 1017.7
20260902083905 64 72 0.0 0.0 0.01 0.44 0.01 95 1017.7
20260902082904 64 54 0.0 0.0 0.01 0.44 0.01 95 1017.6
20260902082403 64 55 0.0 0.0 0.00 0.43 0.00 95 1017.6
20260902081904 64 55 0.0 0.0 0.00 0.43 0.00 95 1017.5
20260902081405 64 55 0.0 0.0 0.00 0.43 0.00 95 1017.5
20260902080904 64 55 0.0 0.0 0.00 0.43 0.00 95 1017.4
20260902080404 64 54 0.0 0.0 0.00 0.43 0.00 95 1017.4
20260902075904 64 50 0.0 0.0 0.00 0.43 0.00 95 1017.4
20260902075404 64 64 0.0 0.0 0.00 0.43 0.00 95 1017.3
20260902074903 64 66 0.0 0.0 0.00 0.44 0.00 95 1017.4
20260902074406 64 66 0.0 0.0 0.00 0.44 0.00 95 1017.3
20260902073904 64 66 0.0 0.0 0.00 0.44 0.00 95 1017.1
20260902073404 64 66 0.0 0.0 0.00 0.44 0.00 95 1017.1
20260902072404 64 67 0.0 0.0 0.00 0.44 0.00 95 1016.7
20260902071404 64 74 0.0 0.0 0.00 0.44 0.00 95 1016.6
20260902070905 64 64 0.0 0.0 0.00 0.44 0.00 95 1016.7
20260902070404 64 104 0.0 1.0 0.00 0.44 0.00 94 1016.7
20260902065904 64 43 0.0 0.0 0.00 0.44 0.00 95 1016.7
20260902065404 65 6 0.0 0.0 0.00 0.44 0.00 95 1016.7
20260902064905 65 10 0.0 0.0 0.00 0.44 0.00 95 1016.8
20260902064405 65 33 0.0 0.0 0.00 0.44 0.00 94 1016.8
20260902063904 65 36 0.0 0.0 0.00 0.44 0.00 94 1016.9
20260902063405 65 22 0.0 0.0 0.00 0.44 0.00 94 1016.9
20260902062904 65 39 0.0 0.0 0.00 0.44 0.00 94 1017.0
20260902062404 65 39 0.0 0.0 0.00 0.44 0.00 94 1017.0
20260902061905 65 20 0.0 0.0 0.00 0.44 0.00 94 1017.2
20260902061405 65 67 0.0 0.0 0.00 0.44 0.00 94 1017.3
20260902060905 65 35 0.0 0.0 0.00 0.44 0.00 94 1017.3
20260902055904 65 18 0.0 0.0 0.00 0.44 0.00 94 1017.3
20260902055404 65 12 0.0 0.0 0.00 0.44 0.00 94 1017.2
20260902054904 65 6 0.0 0.0 0.00 0.44 0.00 94 1017.1
20260902054405 65 5 0.0 0.0 0.00 0.44 0.00 94 1017.0
20260902053905 65 25 0.0 0.0 0.00 0.44 0.00 94 1017.2
20260902052905 66 26 0.0 0.0 0.00 0.44 0.00 93 1017.2
20260902052405 65 19 0.0 0.0 0.00 0.44 0.00 93 1017.1
20260902051904 66 23 0.0 0.0 0.00 0.44 0.00 93 1017.3
20260902051404 66 39 0.0 0.0 0.00 0.44 0.00 93 1017.3
20260902050905 66 51 0.0 0.0 0.00 0.45 0.00 93 1017.3
20260902050405 66 60 0.0 0.0 0.00 0.45 0.00 93 1017.2
20260902045406 66 50 0.0 0.0 0.00 0.46 0.00 93 1017.0
20260902044905 66 50 1.0 7.0 0.00 0.46 0.00 93 1016.9
20260902044405 66 57 1.0 7.0 0.00 0.47 0.00 92 1016.8
20260902043906 66 55 1.0 7.0 0.00 0.49 0.00 92 1016.7
20260902043404 66 57 1.0 3.0 0.00 0.53 0.00 92 1016.9
20260902042905 66 48 0.0 0.0 0.00 0.55 0.00 92 1016.9
20260902042404 66 64 0.0 0.0 0.00 0.55 0.00 92 1017.0
20260902041905 66 80 1.0 5.0 0.00 0.55 0.00 92 1017.0
20260902041405 66 43 0.0 1.0 0.00 0.56 0.00 92 1017.0
20260902040904 66 25 2.0 5.0 0.00 0.56 0.00 92 1017.0
20260902035905 66 85 1.0 3.0 0.00 0.56 0.56 92 1016.7
20260902035405 66 77 0.0 1.0 0.00 0.56 0.56 92 1016.6
20260902034905 66 10 0.0 6.0 0.00 0.56 0.56 92 1016.5
20260902034405 66 36 0.0 0.0 0.00 0.56 0.56 92 1016.3
20260902033905 66 67 0.0 1.0 0.00 0.56 0.56 92 1016.2
20260902033405 66 64 2.0 6.0 0.00 0.56 0.56 92 1016.3
20260902032905 66 44 0.0 0.0 0.00 0.56 0.56 92 1016.2
20260902032403 66 105 1.0 3.0 0.00 0.56 0.56 92 1016.1
20260902031904 66 89 1.0 6.0 0.00 0.56 0.56 92 1015.8
20260902031404 66 68 1.0 10.0 0.00 0.56 0.56 92 1015.9
20260902030904 66 38 0.0 3.0 0.00 0.56 0.56 91 1015.9
20260902030404 66 67 0.0 5.0 0.00 0.56 0.56 91 1015.9
20260902024904 66 82 0.0 10.0 0.00 0.56 0.56 91 1016.0
20260902024404 66 78 1.0 7.0 0.00 0.56 0.56 91 1016.0
20260902023404 66 71 1.0 8.0 0.00 0.56 0.56 91 1015.8
20260902022403 66 65 3.0 12.0 0.00 0.56 0.56 91 1015.5
20260902021904 66 64 2.0 9.0 0.00 0.56 0.56 91 1015.3
20260902020904 66 67 3.0 10.0 0.00 0.56 0.56 92 1015.2
20260902020404 67 55 3.0 8.0 0.00 0.56 0.56 92 1015.2
20260902015904 67 58 1.0 12.0 0.00 0.56 0.56 92 1015.0
20260902015404 67 57 1.0 9.0 0.00 0.56 0.56 92 1014.9
20260902014904 67 52 1.0 3.0 0.00 0.56 0.56 92 1015.2
20260902014405 67 69 2.0 10.0 0.00 0.56 0.56 92 1015.0
20260902013904 67 67 1.0 7.0 0.00 0.56 0.56 92 1014.9
20260902012904 67 65 1.0 3.0 0.00 0.56 0.56 92 1014.7
20260902012404 67 51 1.0 3.0 0.00 0.56 0.56 92 1014.6
20260902011905 67 45 2.0 12.0 0.00 0.56 0.56 92 1014.4
20260902011405 68 53 3.0 12.0 0.00 0.56 0.56 92 1014.3
20260902010904 68 73 2.0 9.0 0.00 0.56 0.56 93 1014.2
20260902010404 68 64 2.0 8.0 0.00 0.56 0.56 93 1014.3
20260902005905 68 52 3.0 14.0 0.00 0.56 0.56 92 1014.1
20260902005404 68 85 2.0 8.0 0.00 0.56 0.56 93 1014.0
20260902003905 69 91 3.0 10.0 0.00 0.56 0.56 93 1013.8
20260902003404 69 71 2.0 12.0 0.01 0.57 0.56 93 1013.6
20260902002904 69 83 3.0 10.0 0.03 0.57 0.56 93 1013.8
20260902002405 69 64 2.0 8.0 0.08 0.57 0.56 93 1013.8
20260902001905 70 55 2.0 9.0 0.10 0.57 0.56 93 1013.9
20260902001404 70 92 5.0 12.0 0.17 0.57 0.56 93 1013.7
20260902000904 70 104 2.0 8.0 0.18 0.57 0.56 93 1013.5
20260902000406 71 92 1.0 9.0 0.18 0.57 0.56 93 1013.6
20260901235905 71 81 3.0 10.0 0.19 0.57 0.56 93 1013.5
20260901235404 71 68 2.0 12.0 0.20 0.57 0.56 93 1013.5
20260901234405 72 83 2.0 9.0 0.20 0.57 0.56 93 1013.5
20260901233905 72 78 2.0 6.0 0.20 0.57 0.56 93 1013.6
20260901233404 73 69 4.0 10.0 0.22 0.56 0.55 93 1013.4
20260901232904 73 74 3.0 9.0 0.22 0.54 0.53 93 1013.2